Wind_Speed
13 12 9 7 5 4 3 3 4 5 7 8 9 7 4 7 17 13 18 15 14 11 9 5 5 7 9 7 7 3 4 2 1 5 2 2 2 2 4 5 3 2 2 1 6
14 15 12 7 3 4 4 4 5 6 7 8 7 4 4 2 8 19 15 11 11 12 7 4 9 11 6 5 5 6 4 3 3 2 2 2 2 5 3 3 3 3 1 2 7
15 17 14 9 6 6 6 6 7 6 7 7 5 2 6 3 3 15 13 11 10 11 6 6 3 7 7 7 7 4 3 3 1 2 4 3 1 2 5 4 8 8 6 2 6
17 17 15 12 10 9 8 9 9 9 9 8 7 5 11 4 2 13 11 11 9 11 5 7 3 3 4 5 5 6 3 3 4 2 2 2 2 2 8 4 5 6 4 3 6
17 17 13 12 10 10 10 11 11 11 10 8 4 4 6 8 9 12 10 9 7 8 10 8 10 4 4 3 3 4 2 1 3 2 1 2 3 5 7 7 6 5 4 3 6
17 17 12 11 10 10 10 11 11 11 8 6 7 8 6 8 12 13 9 8 8 9 12 12 7 8 7 4 4 2 2 2 2 2 2 2 2 1 2 10 9 7 5 3 5
16 16 14 10 8 8 9 9 9 9 8 9 7 7 19 10 16 12 9 7 8 8 10 12 10 4 3 3 3 3 3 4 2 2 1 1 3 5 5 11 11 9 6 5 7
16 15 14 10 8 8 8 8 9 6 4 2 3 5 6 11 16 11 8 8 7 7 6 7 6 7 5 2 5 5 4 5 2 2 1 3 7 3 4 14 14 12 10 8 7
16 14 12 7 6 7 7 6 4 5 5 4 4 3 3 9 15 14 8 6 4 4 6 4 3 6 5 4 4 7 1 2 8 2 1 2 7 3 3 14 14 15 13 10 8
16 13 8 9 3 4 4 5 8 3 1 2 6 3 7 7 15 16 5 6 4 2 2 5 5 4 5 5 0 3 3 4 5 3 4 4 12 8 14 18 18 15 14 11 10
16 13 9 7 3 3 5 2 4 2 14 9 7 4 6 7 7 16 7 3 5 6 4 6 7 2 2 1 1 2 3 5 4 3 4 5 8 12 11 13 16 15 16 15 12
16 14 11 4 7 2 8 5 1 6 8 8 7 6 7 8 5 17 10 3 7 3 4 5 2 2 3 2 1 3 3 5 6 3 1 5 9 4 3 2 11 18 17 16 14
16 13 12 6 6 7 2 3 8 4 3 3 6 5 6 5 5 13 13 4 6 4 4 4 2 4 1 2 5 3 4 3 5 6 1 6 5 2 2 2 4 11 14 15 15
16 13 12 9 4 8 2 7 6 2 4 5 4 4 5 4 2 9 11 5 5 2 1 1 3 2 2 1 2 5 2 4 5 1 3 3 4 4 3 5 5 12 15 15 14
16 14 12 12 8 6 2 6 3 2 3 1 3 4 4 3 5 8 7 4 3 3 2 3 3 3 2 2 2 7 3 4 2 1 2 1 2 6 1 5 6 11 17 16 12
16 14 11 12 8 5 4 7 3 5 4 3 3 6 4 6 5 7 5 5 2 2 2 2 2 2 2 3 2 6 2 2 3 2 1 2 3 5 4 5 2 3 6 14 13
16 14 9 11 8 3 7 5 5 4 2 1 2 3 1 3 4 6 4 6 3 4 6 6 2 2 1 3 2 7 5 4 5 4 4 2 1 8 4 5 3 2 2 6 13
15 14 7 10 7 2 4 4 2 2 3 1 1 3 1 4 1 5 2 2 2 3 2 3 6 1 1 1 2 2 2 3 4 3 5 4 6 5 3 2 4 4 5 7 12
14 12 3 9 6 1 2 3 4 3 2 1 1 2 3 0 1 3 0 4 3 2 2 2 5 2 1 1 3 2 0 2 1 1 2 4 7 7 2 5 8 8 5 7 9
15 11 2 8 5 1 3 4 3 2 3 1 3 2 2 3 3 3 2 3 3 5 2 4 5 2 1 1 1 2 4 1 2 3 5 5 5 6 4 6 6 8 7 8 10
14 5 2 8 5 1 3 6 4 5 5 4 5 3 5 2 2 2 3 3 6 5 3 4 3 5 2 4 5 1 1 1 2 4 3 4 6 6 6 5 7 2 2 5 7
8 4 4 6 1 1 2 4 3 5 4 5 2 5 6 5 3 4 6 5 10 9 5 5 4 5 11 2 2 2 4 5 4 3 3 2 9 4 6 5 7 5 3 5 9
12 5 5 4 1 2 3 2 4 4 4 4 4 6 3 4 3 5 3 2 12 8 6 5 2 5 7 3 1 3 5 6 2 2 11 5 7 2 5 5 5 6 2 7 10
6 3 2 3 2 3 2 4 3 5 3 4 2 2 2 3 5 3 3 2 10 7 5 8 4 8 8 8 3 5 7 7 9 6 7 19 25 16 10 7 8 3 4 8 10
3 2 2 3 2 2 3 2 3 3 5 6 2 7 7 4 3 5 5 3 4 5 6 6 7 6 13 15 10 18 20 16 17 20 15 32 17 22 6 3 6 1 7 10 13
4 3 2 5 6 2 2 4 6 3 7 5 6 3 8 7 9 7 5 5 7 3 7 4 5 3 6 12 18 20 20 22 22 24 21 26 28 6 6 5 3 2 7 9 11
8 9 5 4 2 1 4 5 4 3 8 7 11 4 5 17 24 23 15 13 11 8 9 6 5 3 12 2 5 12 16 19 6 5 12 15 12 7 3 2 2 4 6 6 10
Wind_Direction
16 15 8 8 15 35 52 75 114 120 140 141 138 119 71 51 43 49 42 25 22 25 34 51 45 47 59 60 48 77 61 83 142 160 208 178 138 151 128 128 117 91 126 40 341
14 10 359 344 13 71 77 90 115 118 136 144 142 99 18 4 23 35 31 18 9 11 28 47 48 57 65 40 31 64 83 162 214 175 187 199 184 160 167 128 123 152 165 346 335
17 14 20 42 95 94 91 96 115 117 124 133 141 29 341 315 14 8 17 16 16 13 16 35 81 58 49 50 21 57 127 156 221 112 157 170 241 201 168 231 215 213 209 282 331
22 24 40 62 85 91 91 97 108 113 119 123 119 76 44 58 61 2 10 15 22 17 24 47 58 61 57 51 28 90 90 173 183 155 170 183 179 235 204 247 240 208 215 292 331
25 31 51 62 78 91 94 101 107 111 114 112 84 33 49 60 18 4 10 18 33 32 47 58 60 64 75 63 56 76 160 147 175 177 217 197 239 250 245 231 204 203 208 291 334
27 32 51 67 78 89 99 105 107 111 104 81 78 49 63 64 13 13 21 29 41 47 47 54 62 81 81 65 75 65 136 275 263 275 246 256 266 283 270 212 205 209 217 269 326
28 32 43 61 76 94 109 112 110 110 106 99 102 55 62 56 26 19 22 39 48 52 56 53 56 54 78 58 47 74 10 339 288 278 307 332 274 240 249 202 208 214 233 271 314
29 32 37 52 72 92 115 119 113 102 75 97 60 74 80 32 23 29 33 47 53 51 62 54 55 54 48 85 30 39 49 11 320 186 25 72 277 277 251 200 211 219 227 250 289
27 29 32 44 70 107 108 117 100 82 61 51 39 64 45 24 18 19 22 31 42 45 54 46 51 57 41 69 23 16 300 312 319 215 30 167 266 288 231 208 219 220 227 239 270
23 23 29 32 64 112 117 109 72 5 251 13 31 72 29 2 20 14 8 26 34 71 48 37 51 58 28 46 161 297 333 306 249 285 226 247 267 278 266 229 232 224 227 243 266
18 18 19 35 53 156 152 288 307 56 63 71 47 42 0 359 11 16 23 13 20 46 37 22 60 30 307 299 246 232 238 251 252 252 298 238 273 285 307 236 232 226 221 236 252
16 15 16 28 22 318 246 266 311 135 75 52 40 31 16 4 356 16 21 55 42 35 351 24 29 287 287 25 303 265 250 277 291 246 232 298 290 280 318 243 230 223 224 235 249
13 13 15 3 347 2 27 177 144 122 83 26 24 13 6 1 21 1 15 29 52 45 23 108 318 332 8 11 354 288 228 254 256 313 256 320 306 309 227 260 210 218 232 240 247
7 8 7 4 3 357 42 141 139 81 73 313 350 2 352 351 19 6 13 28 39 58 14 30 321 358 328 40 88 308 215 314 294 355 272 16 279 289 255 282 234 230 229 238 245
2 2 3 4 356 360 355 161 134 76 24 320 325 337 350 44 333 7 9 23 72 338 64 284 333 331 304 280 163 246 347 281 275 194 10 283 76 265 11 276 262 246 235 234 241
355 357 356 1 9 25 98 148 120 45 261 356 329 356 12 7 2 337 4 34 64 102 359 257 273 225 267 301 229 303 352 65 53 88 12 210 123 273 192 200 191 243 249 230 232
350 351 353 3 5 55 122 123 37 134 23 351 352 26 347 320 354 25 26 10 49 31 7 332 260 283 265 330 13 18 23 344 353 359 234 273 279 247 242 206 200 226 292 244 233
345 347 351 1 7 74 146 52 175 167 222 19 9 331 5 13 354 354 65 24 35 77 79 44 327 225 37 151 256 337 113 135 289 278 288 315 241 254 223 238 242 276 285 271 246
342 341 327 358 355 8 131 67 226 202 140 132 28 33 321 303 242 25 315 202 214 161 114 36 275 282 215 161 124 131 114 179 249 303 346 255 287 294 269 285 271 259 268 285 277
340 334 251 351 345 305 87 235 217 198 147 96 194 176 248 272 348 17 212 195 195 201 179 197 297 232 328 109 67 178 161 357 30 307 287 282 283 249 229 248 230 250 264 290 290
336 320 276 336 328 206 179 224 215 204 185 166 202 216 225 246 212 241 240 233 187 188 172 145 145 289 345 199 184 73 286 103 151 168 237 297 254 216 216 208 181 166 312 334 4
333 323 287 323 296 37 176 196 200 191 197 225 215 213 201 186 243 246 229 226 183 162 178 194 165 250 237 201 175 197 218 163 147 252 235 204 271 352 231 149 147 131 85 3 349
325 279 272 282 236 266 271 270 225 175 222 194 233 208 172 209 235 208 247 326 176 163 175 187 250 314 327 22 56 215 200 211 247 143 232 238 256 152 102 98 131 142 34 352 346
312 333 260 235 220 159 196 241 245 218 248 205 242 137 144 243 227 284 258 235 200 208 221 178 195 200 237 239 182 226 223 212 218 238 258 235 265 258 259 247 193 196 332 351 351
281 265 287 298 316 252 189 206 205 238 216 210 255 211 180 224 219 223 227 278 204 225 189 173 235 220 242 262 266 263 261 251 233 243 241 269 254 269 263 254 167 315 341 347 350
261 245 272 280 286 266 208 237 216 220 162 234 214 200 190 212 201 216 197 200 218 171 169 193 260 219 264 237 246 263 257 253 246 249 247 254 271 283 119 116 66 354 345 343 341
241 243 234 262 271 134 232 226 232 181 235 234 218 174 203 231 242 256 257 257 245 181 195 180 202 182 274 191 292 274 241 234 223 220 224 235 251 149 115 22 300 304 340 333 337
Height
1545 1542 1539 1538 1536 1536 1535 1534 1534 1533 1533 1534 1534 1535 1534 1534 1533 1531 1526 1529 1527 1525 1524 1523 1521 1520 1519 1519 1519 1520 1534 1544 1540 1540 1536 1536 1537 1537 1537 1538 1539 1539 1539 1540 1539
1545 1541 1538 1536 1535 1535 1535 1534 1534 1534 1534 1535 1535 1535 1535 1534 1533 1531 1532 1530 1528 1526 1525 1523 1522 1521 1520 1522 1522 1523 1539 1538 1535 1535 1537 1536 1536 1537 1539 1539 1540 1539 1539 1539 1539
1545 1541 1537 1535 1535 1535 1535 1535 1535 1535 1535 1536 1536 1536 1535 1534 1534 1534 1532 1530 1528 1526 1525 1524 1523 1523 1522 1523 1526 1529 1538 1537 1536 1537 1536 1536 1537 1537 1537 1538 1536 1537 1538 1539 1538
1545 1542 1539 1537 1537 1537 1536 1536 1536 1536 1537 1537 1537 1537 1535 1535 1541 1536 1533 1531 1529 1528 1526 1525 1524 1525 1526 1528 1529 1534 1534 1535 1535 1536 1536 1536 1536 1536 1535 1534 1534 1536 1538 1538 1537
1546 1543 1541 1540 1539 1539 1538 1538 1538 1538 1539 1539 1539 1538 1537 1537 1540 1537 1534 1533 1531 1530 1527 1527 1526 1527 1531 1531 1531 1533 1535 1535 1535 1536 1536 1536 1535 1535 1533 1533 1534 1535 1536 1537 1537
1548 1545 1543 1542 1541 1541 1540 1540 1540 1541 1541 1541 1541 1540 1538 1540 1540 1537 1535 1534 1533 1531 1530 1528 1529 1529 1531 1533 1534 1535 1536 1535 1535 1536 1536 1536 1535 1535 1533 1533 1535 1535 1535 1536 1535
1549 1547 1545 1544 1543 1543 1543 1543 1543 1543 1543 1543 1542 1542 1541 1545 1541 1538 1537 1536 1535 1533 1532 1532 1531 1532 1533 1535 1537 1536 1537 1536 1536 1536 1536 1536 1535 1535 1531 1532 1534 1535 1537 1537 1536
1551 1549 1547 1546 1545 1545 1545 1545 1545 1545 1544 1544 1543 1543 1543 1544 1542 1540 1538 1537 1536 1535 1534 1534 1533 1533 1535 1537 1537 1541 1541 1547 1536 1537 1537 1537 1540 1529 1530 1531 1532 1533 1532 1534 1534
1553 1551 1550 1548 1547 1547 1547 1547 1546 1546 1545 1545 1545 1544 1546 1545 1544 1541 1539 1538 1537 1536 1536 1535 1535 1536 1537 1541 1547 1550 1552 1548 1542 1536 1537 1539 1536 1530 1530 1530 1530 1531 1531 1531 1531
1554 1553 1551 1550 1549 1549 1548 1548 1548 1546 1546 1545 1545 1548 1548 1548 1545 1542 1540 1539 1538 1537 1537 1537 1537 1542 1546 1549 1559 1553 1553 1549 1549 1538 1538 1539 1535 1530 1529 1527 1528 1529 1529 1531 1531
1556 1554 1552 1551 1550 1550 1549 1549 1551 1550 1547 1549 1551 1550 1549 1548 1546 1543 1540 1540 1539 1539 1542 1541 1549 1554 1550 1549 1547 1548 1551 1551 1543 1536 1536 1535 1534 1526 1524 1524 1526 1526 1526 1526 1525
1557 1554 1552 1551 1550 1549 1549 1549 1549 1551 1552 1551 1551 1551 1549 1548 1546 1544 1542 1542 1541 1546 1544 1548 1552 1548 1547 1547 1546 1546 1546 1546 1539 1535 1537 1533 1530 1524 1522 1521 1520 1522 1523 1524 1524
1558 1555 1553 1551 1551 1550 1548 1549 1549 1550 1551 1553 1551 1550 1550 1549 1548 1546 1544 1543 1545 1547 1549 1551 1549 1547 1547 1548 1549 1545 1545 1543 1545 1538 1535 1535 1527 1522 1520 1519 1518 1519 1520 1521 1519
1559 1556 1554 1551 1552 1549 1549 1549 1550 1551 1559 1556 1552 1552 1551 1548 1549 1548 1546 1547 1546 1550 1550 1551 1548 1547 1546 1546 1548 1550 1540 1542 1544 1544 1542 1535 1537 1524 1519 1519 1518 1516 1516 1517 1518
1560 1557 1555 1552 1551 1550 1551 1550 1551 1552 1585 1556 1553 1552 1551 1551 1552 1549 1548 1546 1549 1551 1551 1551 1549 1548 1546 1545 1546 1546 1540 1541 1540 1543 1544 1537 1542 1521 1520 1517 1515 1512 1513 1514 1517
1561 1558 1555 1553 1551 1551 1550 1551 1553 1566 1582 1556 1553 1553 1552 1551 1551 1549 1548 1547 1548 1549 1550 1549 1549 1548 1546 1544 1544 1542 1540 1541 1545 1547 1548 1532 1540 1523 1519 1513 1512 1512 1510 1511 1513
1561 1558 1556 1554 1553 1551 1551 1553 1567 1576 1557 1557 1557 1555 1556 1555 1553 1552 1554 1555 1557 1553 1560 1554 1548 1547 1546 1545 1544 1545 1548 1554 1551 1553 1541 1538 1538 1519 1508 1508 1508 1509 1509 1509 1510
1562 1559 1556 1555 1554 1553 1554 1556 1565 1558 1559 1557 1557 1556 1557 1557 1555 1554 1556 1559 1556 1558 1567 1566 1558 1546 1546 1546 1547 1549 1553 1561 1553 1557 1549 1542 1537 1514 1506 1506 1506 1506 1506 1506 1507
1561 1558 1557 1556 1554 1554 1556 1568 1561 1558 1556 1557 1556 1557 1558 1556 1556 1554 1556 1559 1557 1556 1559 1564 1556 1544 1545 1545 1548 1549 1554 1553 1557 1559 1563 1542 1527 1509 1507 1506 1506 1506 1506 1505 1505
1560 1557 1556 1555 1554 1554 1556 1561 1557 1555 1555 1557 1558 1558 1559 1557 1557 1557 1556 1553 1554 1554 1555 1559 1564 1546 1545 1547 1548 1547 1550 1554 1563 1553 1550 1539 1536 1519 1507 1506 1505 1506 1505 1505 1504
1559 1556 1555 1554 1553 1553 1559 1558 1554 1552 1553 1556 1556 1557 1558 1557 1557 1558 1554 1551 1550 1553 1554 1557 1563 1552 1548 1547 1546 1551 1553 1553 1557 1560 1552 1554 1528 1507 1505 1504 1505 1506 1506 1506 1504
1559 1558 1555 1553 1555 1554 1556 1552 1552 1551 1552 1553 1554 1554 1556 1555 1556 1557 1554 1548 1547 1550 1555 1555 1563 1565 1548 1541 1541 1543 1544 1549 1556 1547 1550 1552 1513 1502 1500 1501 1502 1504 1505 1506 1504
1558 1555 1553 1553 1557 1556 1552 1551 1550 1551 1551 1552 1552 1551 1552 1554 1557 1553 1549 1546 1546 1549 1553 1555 1560 1562 1544 1545 1542 1542 1540 1540 1537 1538 1539 1540 1510 1501 1501 1501 1502 1503 1502 1502 1501
1561 1557 1552 1551 1551 1551 1553 1550 1550 1548 1550 1550 1550 1550 1552 1553 1553 1551 1549 1545 1545 1546 1547 1550 1555 1551 1546 1538 1536 1538 1535 1533 1533 1536 1529 1513 1497 1498 1497 1499 1500 1501 1501 1500 1498
1560 1557 1556 1554 1550 1550 1551 1548 1548 1548 1548 1548 1548 1548 1550 1553 1550 1551 1547 1544 1543 1543 1545 1547 1551 1548 1536 1533 1532 1525 1521 1521 1524 1513 1521 1485 1501 1484 1494 1496 1497 1499 1499 1497 1495
1559 1557 1556 1553 1551 1550 1549 1547 1546 1544 1545 1546 1547 1541 1545 1547 1541 1542 1542 1542 1541 1542 1543 1543 1543 1541 1535 1529 1524 1519 1513 1506 1503 1498 1500 1494 1488 1489 1494 1494 1495 1495 1494 1492 1491
1555 1553 1552 1551 1551 1551 1547 1541 1540 1541 1537 1537 1538 1540 1541 1535 1532 1532 1534 1534 1532 1534 1539 1541 1538 1538 1516 1519 1521 1508 1490 1489 1489 1487 1485 1493 1480 1486 1492 1495 1495 1493 1490 1489 1490